Regional Weather Roundup
Issued by NWS Grand Forks, ND

Home | Current Version | Previous Version | Graphics & Text | Print | Product List | Glossary On
Versions: 1 2 3 4 5 6 7 8 9 10 11 12 13 14 15 16 17 18 19 20 21 22 23 24 25 26 27 28 29 30 31 32 33 34 35 36 37 38 39 40 41 42 43 44 45 46 47 48 49 50
000
ASUS43 KFGF 212231
RWRFGF
PRAIRIE TO PINES  WEATHER ROUNDUP
NATIONAL WEATHER SERVICE EASTERN NORTH DAKOTA/GRAND FORKS ND
500 PM CDT FRI JUL 21 2017

 **SATELLITE DATA USED TO AUGMENT SKY COVER AT AUTOMATED STATIONS**
 *****  WEATHER ACROSS EASTERN NORTH DAKOTA  *****

CITY           SKY/WX    TMP DP  RH WIND       PRES   REMARKS
GRAND FORKS    LGT RAIN  76  73  91 S8        29.69F
GRAND FRKS AFB FAIR      75  71  88 S9        29.71F
DEVILS LAKE    FAIR      78  66  66 SW12      29.77R
FARGO          LGT RAIN  85  70  60 N21       29.77R
WAHPETON ARPT  MOCLDY    84  72  65 SE7       29.78R
$$

 ***** WEATHER ACROSS CENTRAL AND WESTERN NORTH DAKOTA  *****

CITY           SKY/WX    TMP DP  RH WIND       PRES   REMARKS
BISMARCK       FAIR      89  67  47 N3        29.79F HX  92
MINOT          FAIR      89  65  44 W7        29.79S HX  91
JAMESTOWN      FAIR      83  63  50 NE13      29.79F
MINOT AFB      FAIR      86  65  50 W7        29.77F
GARRISON         N/A     88  65  46 S8        29.80S HX  90
WILLISTON      FAIR      95  42  16 W15G22    29.80F HX  91
DICKINSON      FAIR      90  58  33 SW3       29.83F
HETTINGER      FAIR      91  59  33 NW16G24   29.86S HX  90
$$

 *****  OTHER AIRPORT OBSERVATIONS IN OUR AREA  *****

CITY           SKY/WX    TMP DP  RH WIND       PRES   REMARKS
WALHALLA       NOT AVBL
GRAFTON AIRPOR FAIR      82  73  74 NE14      29.75S
VALLEY CITY AR FAIR      79  64  61 NE16G22   29.81F
CANDO          NOT AVBL
CAVALIER APRT  MOCLDY    79  70  73 NE9       29.77R
GWINNER          N/A     90  73  58 CALM      29.77S HX  98
SHEYENNE NWR     N/A     95  69  42 N6        29.95S HX 100
ROLLA            N/A     79  70  73 NE5       29.83R
 ***** THE ABOVE OBSERVATIONS ARE NON NWS ARE NOT QUALITY
       CONTROLLED AND MAY MIS-REPORT RAIN FOR SNOW...
$$

  *****  WEATHER ACROSS NORTHERN MINNESOTA  *****

CITY           SKY/WX    TMP DP  RH WIND       PRES   REMARKS
FLAG ISLAND    FAIR      72  57  60 NE13G20   29.83F
WARROAD        FAIR      72  64  78 NE16G23   29.82F
ROSEAU         FAIR      72  64  78 E13G23    29.80F
HALLOCK        FAIR      81  66  61 NE12      29.76R
THF RVR FALLS  FAIR      77  69  76 CALM      29.78F
BAUDETTE       FAIR      76  63  64 E14       29.81F
WASKISH        FAIR      66  64  94 NE5       29.82R
CROOKSTON      LGT RAIN  72  70  94 S17       29.67F
STEPHEN NDAWN    N/A     81  72  74 E8          N/A
GREENBUSH NDAW   N/A     75  66  73 NE12        N/A
$$
  *****  WEATHER ACROSS CENTRAL AND WEST MINNESOTA  *****

CITY           SKY/WX    TMP DP  RH WIND       PRES   REMARKS
FOSSTON        TSTM      64  63  94 N5        29.84S
BEMIDJI        TSTM      80  66  61 SE13      29.75F
PARK RAPIDS    FAIR      87  71  58 S13       29.77F HX  93
ELBOW LAKE     MOCLDY    82  74  78 S8        29.80S HAZE
WADENA         FAIR      82  72  69 S10       29.78F
DETROIT LAKES  FAIR      82  73  74 S9        29.78F
MOORHEAD       FAIR      88  73  62 S9        29.75F HX  96
FERGUS FALLS   FAIR      84  72  65 S9        29.77S
MORRIS MN      FAIR      88  72  58 SE14      29.79S HX  94
STAPLES        PTSUNNY   82  68  61 S10       29.79F
$$
  *****  WEATHER ELSEWHERE ACROSS MINNESOTA  *****

CITY           SKY/WX    TMP DP  RH WIND       PRES   REMARKS
DULUTH         FAIR      77  67  71 E10       29.85F
INTRNTL FALLS  FAIR      73  61  65 E9        29.83S
ELY            FAIR      82  55  39 S6        29.85F
CLOQUET        FAIR      73  57  56 E13       29.85F
WHEATON        FAIR      84  72  65 S8        29.78S
BRAINERD       FAIR      83  70  64 S10       29.81F
HIBBING        CLOUDY    80  63  55 S8        29.82F
ALEXANDRIA     FAIR      83  71  67 S14       29.83S
SAINT CLOUD    FAIR      81  72  74 S13       29.83F
MINNEAPOLIS    PTSUNNY   82  67  60 S10       29.85R
$$

  *****  WEATHER ACROSS SOUTH DAKOTA  *****

CITY           SKY/WX    TMP DP  RH WIND       PRES   REMARKS
SIOUX FALLS    PTSUNNY   83  74  74 SE10      29.81F
BROOKINGS      PTSUNNY   86  71  60 S14       29.82F HX  91
WATERTOWN      FAIR      88  72  58 S12       29.80S HX  94
HURON          FAIR      88  71  57 SE13      29.76F HX  94
SISSETON         N/A     88  76  67 SE12      29.75S HX  99
ABERDEEN       FAIR      88  73  61 VRB3      29.76F HX  95
MITCHELL       FAIR      89  74  60 SE13      29.78F HX  98
PIERRE         FAIR      96  65  35 NE5       29.74F HX  98
MOBRIDGE       FAIR      93  73  52 SW6       29.75S HX 102
RAPID CITY     FAIR      95  49  20 NW21G28   29.91S HX  92
$$

  *****  SOME WEATHER IN NEARBY STATES *****

CITY           SKY/WX    TMP DP  RH WIND       PRES   REMARKS
GLASGOW MT     FAIR      88  32  13 W15G26    29.88S
GREAT FALLS MT FAIR      86  22   9 W20G30    29.98F
CHEYENNE WY    FAIR      85  38  18 CALM      30.16S
SCOTTSBLUFF NE FAIR      94  47  20 N8        29.97F HX  90
OMAHA NE       FAIR     102  74  40 S13G23    29.74F HX 114
DES MOINES IA  PTSUNNY   97  72  44 S10G20    29.78S HX 105
DAVENPORT IA   PTSUNNY   87  79  76 NE7       29.85F HX 101
CHICAGO IL     CLOUDY    77  73  87 SE12G20   29.92F THUNDER
EAU CLAIRE WI  FAIR      76  66  71 S14       29.87S
LA CROSSE WI   CLOUDY    74  70  87 S9        29.89F
$$

  *****  SOME NATIONAL WEATHER *****

CITY           SKY/WX    TMP DP  RH WIND       PRES   REMARKS
LA GUARDIA NY  PTSUNNY   92  66  42 W12       29.84F HX  94
RALEIGH NC     PTSUNNY   95  69  42 CALM      29.95S HX 100
ATLANTA GA     FAIR      91  70  49 SW3       30.00S HX  96
NEW ORLEANS LA PTSUNNY   89  73  59 S7        30.00R HX  97
OKLAHOMA CITY  PTSUNNY  100  61  27 SW6G20    29.91F HX 101
ALBUQUERQUE NM FAIR      89  51  27 SW18G24   30.10F
SALT LAKE CITY FAIR      95  50  21 NW9       30.00F HX  92
LOS ANGELES CA FAIR      76  65  68 W14       29.92F
BOISE ID       FAIR      93  40  15 NW7G18    30.01F
SEATTLE WA     PTSUNNY   76  52  43 W9        30.14F
$$

*** WEATHER ACROSS MANITOBA...SASKATCHEWAN AND ONTARIO ***
                ***ONTARIO***

CITY           SKY/WX    TMP DP  RH WIND       PRES   REMARKS
GERALDTON      MOSUNNY   73  48  40 NW6       29.93F
THUNDER BAY    PTSUNNY   73  55  53 NE5       29.90F
SIOUX LOOKOUT  CLOUDY    73  61  64 SW6       29.92F
TORONTO        PTSUNNY   84  54  34 NW13      29.91R
BIG TROUT LK   PTSUNNY   68  39  34 W10       29.94S
PICKLE LAKE    PTSUNNY   72  41  33 N5        29.96S
DRYDEN         CLOUDY    64  63  94 SW5       29.91F
KENORA         CLOUDY    64  61  88 NE9       29.88F
$$
                *** MANITOBA***

CITY           SKY/WX    TMP DP  RH WIND       PRES   REMARKS
BRANDON        PTSUNNY   75  66  73 E16       29.81F
DAUPHIN        SUNNY     73  59  60 SE13G20   29.84S
ISLAND LAKE    MOSUNNY   72  43  35 S6        29.96S
PILOT MOUND      N/A     75  66  73 E12G20      N/A
THE PAS        PTSUNNY   72  46  40 E10       29.90F
THOMPSON       MOSUNNY   73  37  27 E3        29.92F
WINNIPEG       PTSUNNY   72  61  68 E14G21    29.81F
LYNN LAKE      SUNNY     73  34  23 SE6       29.93F
CHURCHILL      SUNNY     63  45  51 N5        29.93F
GILLAM         MOSUNNY   73  46  38 NW6       29.92S
$$
                ***SASKATCHEWAN***

CITY           SKY/WX    TMP DP  RH WIND       PRES   REMARKS
ESTEVAN        MOSUNNY   84  64  51 NW12      29.79F
KINDERSLEY     PTSUNNY   72  48  43 S13       29.88R
LLOYDMINSTER   CLOUDY    70  55  60 W9        29.86R
PRINCE ALBERT  LGT RAIN  63  59  88 E2        29.84S
REGINA         MOSUNNY   82  52  34 W22G31    29.79R
YORKTON        PTSUNNY   77  63  61 E14G20    29.78F
N. BATTLEFORD  PTSUNNY   57  55  94 E6        29.88S THUNDER
LA RONGE       LGT RAIN  63  57  82 S8        29.92R
SASKATOON      CLOUDY    66  59  77 N3        29.84R
SWIFT CURRENT  PTSUNNY   75  43  31 W16G24    29.89R
$$
NOTE: THESE ARE AUTOMATED STATIONS WITH LIMITED QUALITY CONTROL
      "FAIR" INDICATES FEW OR NO CLOUDS BELOW 12,000 FEET WITH NO
      SIGNIFICANT WEATHER AND/OR OBSTRUCTIONS TO VISIBILITY.
      SKY/WX - SKY CONDITION AND SIGNIFICANT WEATHER.
      TMP - AIR TEMPERATURE.    DP   - DEWPOINT TEMPERATURE.
      RH  - RELATIVE HUMIDITY.  PRES - PRESSURE.
      HX  - HEAT INDEX.         WCI  - WIND CHILL INDEX.
$




USA.gov is the U.S. government's official web portal to all federal, state and local government web resources and services.